This is the latest recevied weather packets stored in our database for station/object N9XRG. If no packets are shown the sender has not sent any weather packets the latest 10 day(s).
| Time | Temp. | Humidity | Pressure | Rain* | Wind** | Luminosity | Snow |
|---|---|---|---|---|---|---|---|
| 1777831576 | 16.67° C | 41% | 1013.9 hPa | 0 mm | - | 564 W/m² | - |
| 1777831274 | 17.22° C | 39% | 1014.3 hPa | 0 mm | - | 687 W/m² | - |
| 1777830971 | 17.22° C | 40% | 1013.9 hPa | 0 mm | - | 673 W/m² | - |
| 1777830668 | 17.22° C | 40% | 1014.3 hPa | 0 mm | - | 673 W/m² | - |
| 1777830365 | 17.22° C | 39% | 1014.5 hPa | 0 mm | - | 653 W/m² | - |
| 1777830061 | 17.22° C | 40% | 1014.2 hPa | 0 mm | - | 647 W/m² | - |
| 1777829756 | 16.67° C | 43% | 1014.6 hPa | 0 mm | - | 655 W/m² | - |
| 1777829453 | 17.22° C | 41% | 1014.7 hPa | 0 mm | - | 708 W/m² | - |
| 1777829150 | 17.22° C | 38% | 1014.8 hPa | 0 mm | - | 699 W/m² | - |
| 1777828848 | 17.22° C | 38% | 1014.8 hPa | 0 mm | - | 736 W/m² | - |
| 1777828544 | 16.67° C | 40% | 1014.9 hPa | 0 mm | - | 761 W/m² | - |
| 1777828242 | 16.67° C | 38% | 1014.9 hPa | 0 mm | - | 738 W/m² | - |
| 1777827937 | 16.67° C | 41% | 1014.9 hPa | 0 mm | - | 782 W/m² | - |
| 1777827635 | 16.67° C | 38% | 1014.9 hPa | 0 mm | - | 677 W/m² | - |
| 1777827332 | 17.22° C | 38% | 1015.2 hPa | 0 mm | - | 651 W/m² | - |
| 1777827029 | 16.67° C | 40% | 1015 hPa | 0 mm | - | 782 W/m² | - |
| 1777826726 | 16.67° C | 39% | 1015.2 hPa | 0 mm | - | 777 W/m² | - |
| 1777826423 | 16.67° C | 40% | 1015.2 hPa | 0 mm | - | 696 W/m² | - |
| 1777826119 | 16.67° C | 40% | 1015.1 hPa | 0 mm | - | 668 W/m² | - |
| 1777825817 | 16.11° C | 42% | 1015.2 hPa | 0 mm | - | 673 W/m² | - |
| 1777825514 | 16.67° C | 40% | 1015 hPa | 0 mm | - | 575 W/m² | - |
| 1777825212 | 16.67° C | 40% | 1015.2 hPa | 0 mm | - | 646 W/m² | - |
| 1777824908 | 16.67° C | 41% | 1015.2 hPa | 0 mm | - | 793 W/m² | - |
| 1777824604 | 17.22° C | 41% | 1015.2 hPa | 0 mm | - | 845 W/m² | - |
| 1777824301 | 16.67° C | 41% | 1015.6 hPa | 0 mm | - | 657 W/m² | - |
* Rain latest hour (hover to see other rain measurements)
** Current wind speed in m/s (hover to see current wind gust speed)